sat.trackr.live / text

‹ back to catalog

STARLINK-32475

NORAD 61728 · 2024-196X

PAYLOAD ACTIVE UNKNOWN

§ Identity

Operator
Country
US
Launch date
2024-10-30
Launch site
AFETR
Launch vehicle
Mass (kg)
RCS (m²)

Purposes: comms

External: N2YO · Heavens-Above · Gunter

§ Orbital elements

Epoch: 2026-05-25T03:31:39.571392Z

Period
94.11 min
Inclination
53.1614°
Eccentricity
0.0001309
Mean motion
15.30189187 rev/d
Perigee alt
474.4 km
Apogee alt
476.1 km
Semi-major
6,853.4 km
B*
2.0619e-6
RAAN
106.1200°
Arg perigee
86.5608°
Mean anomaly
273.5543°
Rev number
8,886

§ Raw data

STARLINK-324751 61728U 24196X   26145.14698578 -.00000298  00000+0  20619-5 0  99942 61728  53.1614 106.1200 0001309  86.5608 273.5543 15.30189187 88864

JSON: /api/v1/satellites/61728 · /tle

For live sub-satellite position, see the globe view (requires WebGL).

§ Visibility from observer

Set your observer location to see the next 7 days of passes ≥ 10°. The values pass through the URL so the page stays shareable.

No JS? Fill the form by hand. The geolocation button needs JavaScript.